STARLINK-1418, 45708

Orbit data source: Space-Track

STARLINK-1418, 45708 is a payload satellite owned by SpaceX/Seattle (US) in LEO that was launched on Thu, 04 Jun 2020 UTC via an FALCON 9 launch vehicle from the Air Force Eastern Test Range (AFETR). Payloads include a variety of satellites, spacecraft, and rockets equipped with specific instruments for various scientific and technological missions. These include communications satellites like Starlink; space stations such as the ISS; scientific satellites like the Hubble; Earth observation satellites from companies like Planet Labs, Umbra, and HawkEye 360; GPS; miniature CubeSats for education and research; and military/defense satellites.

Loading next visibility...
STARLINK-1418 details
Identifier
45708, 2020-035BD
Orbit
LEO
Last TLE update5 hours ago
Origin
Flag of USSpaceX/Seattle (US)
ManufacturerSpaceX/Seattle
MissionOperational Commercial Communications
Bus & MotorSTARLINK, Unknown motor
Mass260 kg wet, ~248 kg dry
Launch date (UTC)
2020-06-04 (5 years ago)
Launch vehicle
FALCON 9
Launch site
Air Force Eastern Test Range (AFETR)
Object type
Payload
Rocket body
Debris
Shape & HBRBox + 1 Pan, 8.86 m
Radar Cross Section13.562 m², Large (>1 m²)

Expand to show TLE details & history

TLE from 5 hours ago
0 STARLINK-1418
1 45708U 20035BD  24361.58334491  .01227074  00000-0  34559-1 0  9997
2 45708  53.0490 202.2390 0001252  94.0809 145.8315 15.33255832  5835
Epoch: 2024-12-26T14:00Z
Definitive object data (Epoch: 2024-12-26T14:00:01Z)
Latitude-43.94583°
Longitude122.81345°
Altitude481.598 km
Speed7.624 km/s
True Right ascension04h 33m 30s
True Declination-43° 46' 01"
Sunlit
Object was in daylight at TLE epoch
Visualization TLE readout
Latitude-4.83462°
Longitude-107.96555°
Altitude466.511 km
Speed7.634 km/s
Apparent Right ascension10h 35m 44s
Apparent Declination-30° 57' 31"
Sunlit
Object is in daylight
Visualization observer readout
Local Sidereal Time18:33:57
Azimuth260.627° W
Elevation-40.883°
Doppler factor1
Orbital elements
Apogee altitude467.238 km
Perigee altitude465.524 km
Semi-major axis6,844.518 km
Eccentricity0.0001252
Inclination53.049°
RAAN202.239°
Arg. of periapsis94.0809°
True anomaly145.83956°
Mean anomaly145.8315°
Eccentric anomaly145.83553°
Mean motion3.83291 °/min
BSTAR0.034559
Orbital period93.92 mins
Loading maneuver chart data...

STARLINK-1418 Visibility forecast

Observer location: undefined°, undefined

Span
Click to sort rows by Start time (UTC) header in descending order
Start Az.
Max El. time (UTC)
Max El. Az.
Max El.
End time (UTC)
End Az.
5 mins2024-12-26 22:50:19.961Z330.252° NNW2024-12-26 22:52:19.961Z37.034° NE36.27°2024-12-26 22:55:19.961Z108.398° ESE
5 mins2024-12-27 15:42:19.961Z197.037° SSW2024-12-27 15:44:19.961Z146.682° SSE32.751°2024-12-27 15:47:19.961Z67.17° ENE
4 mins2024-12-27 17:20:19.961Z285.283° WNW2024-12-27 17:22:19.961Z334.794° NNW24.162°2024-12-27 17:24:19.961Z20.597° NNE
|